Погода в Гарачике

Испания     28°22′30″N   16°45′50″W
темп.,
°C
ветер,
м/с
пор.,
м/с
влажн.,
%
обл.,
%
осадки,
мм/ч
давл.,
гПа
погр.,
м
18 мая, ср
ср1801:00+20всв55790 0.0 1021480
04:00+20всв55810 0.0 1020483
07:00+20всв45823 0.0 1020505
10:00+19в558612 0.0 1020245
13:00+21всв567820 0.1 1020394
16:00+21св56757 0.0 1019506
19:00+21св56771 0.0 1017617
22:00+20всв67846 0.0 1018523
19 мая, чт
чт1901:00+20всв56820 0.0 1019472
04:00+20всв55825 0.0 1017445
07:00+20св557778 0.0 1017776
10:00+20св557412 0.0 1018620
13:00+20св567918 0.0 1018666
16:00+20ссв568128 0.0 1017676
19:00+20св56798 0.0 1016642
22:00+20всв558413 0.0 1018534
20 мая, пт
пт2001:00+20всв458325 0.3 1018525
04:00+20всв45825 0.1 1017380
07:00+20всв678276 0.3 1018479
10:00+20всв67780 0.1 1019598
13:00+20св77750 0.1 1020860
16:00+20св56769 0.0 1019805
19:00+20св78761 0.0 1019773
22:00+20всв67740 0.0 1020721
21 мая, сб
сб2101:00+20всв677519 0.0 1020724
04:00+20св667571 0.0 1019826
07:00+20всв677982 0.1 1019619
10:00+20всв677836 0.1 1020589
13:00+20св887846 0.1 1020781
16:00+20св677735 0.0 1019753
19:00+20св777813 0.0 1019777
22:00+20св677784 0.0 1020604
22 мая, вс
вс2201:00+20всв777411 0.0 1020865
04:00+20всв78768 0.0 1019822
07:00+20всв887546 0.0 1018900
10:00+20всв88745 0.0 1019803
13:00+20св99768 0.0 1019758
16:00+20св88765 0.0 1017741
19:00+20св787811 0.0 1017761
22:00+20всв89794 0.0 1017762